Regional Weather Roundup
Issued by NWS

Home | Current Version | Previous Version | Text Only | Print | Product List | Glossary On
Versions: 1 2 3 4 5 6 7 8 9 10 11 12 13 14 15 16 17 18 19 20 21 22 23 24 25 26 27 28 29 30 31 32 33 34 35 36 37 38 39 40 41 42 43 44 45 46 47 48 49 50
000
ASUS42 KTBW 231010
RWRFL
FLORIDA REGIONAL WEATHER ROUNDUP
NATIONAL WEATHER SERVICE TAMPA BAY RUSKIN FL
600 AM EDT TUE SEP 23 2014

NOTE: "FAIR" INDICATES FEW OR NO CLOUDS BELOW 12,000 FEET WITH NO
SIGNIFICANT WEATHER AND/OR OBSTRUCTIONS TO VISIBILITY.


FLZ001>010-012>015-112-114-115-231100-
PANHANDLE FLORIDA

CITY           SKY/WX    TMP DP  RH WIND       PRES   REMARKS
PENSACOLA      CLEAR     64  54  69 N12       30.03S
PENSACOLA NAS  CLEAR     63  56  78 N6        30.03R
MILTON NAS     CLEAR     59  53  80 N6        30.05R
CRESTVIEW      CLEAR     60  57  89 N6        30.05S
DUKE FIELD     FAIR      58  58  99 N7        30.04R
VALPARAISO     CLEAR     63  60  90 N6        30.03R
MARY ESTHER    CLEAR     62  56  80 NE8       30.02R
TRI COUNTY     FAIR      64  63  96 MISG      30.05R
PANAMA CITY    FAIR      67  63  87 MISG      30.00S
TYNDALL AFB    CLEAR     67  67  99 NE8       30.01R
APALACHICOLA   CLEAR     69  65  86 NE10      29.99R

STATION/POSITION SKY/WX   TEMP    WIND        PRES    WAVE   SWELL
                          AIR SEA DIR/SP/G            HT/PER HT/PER
                          (F)     (DEG/KT/KT) (MB)    (FT/S) (FT/S)
30.1N   87.6W              75 85   40/ 17/ 21 1016.3R   3/ 5
29.2N   88.2W              80 83   60/ 19/ 23 1015.6S   5/ 6
28.8N   86.0W              79 84   40/ 14/ 16 1014.2    4/ 5
PANAMA CITY BEAC           68 84   30/ 11/ 15 1015.7S
CAPE SAN BLAS    NOT AVBL
TOWER C                    75      30/ 20/ 22 1014.7R
28.5N   84.5W              81 84   20/ 12/ 12 1013.9R   2/ 5   2/ 6

$$
FLZ011-016>038-118-127-128-134-139-239-231100-
NORTH FLORIDA

CITY           SKY/WX    TMP DP  RH WIND       PRES   REMARKS
MARIANNA       MOCLDY    65  65 100 NE9       30.03S
TALLAHASSEE    CLEAR     71  64  78 NE6       30.02R
PERRY          CLOUDY    70  70 100 NE6       30.01R
CROSS CITY       N/A     72  70  93 VRB6      29.98S
LAKE CITY      MOCLDY    70  68  94 NE6       30.01S
GAINESVILLE    CLOUDY    71  71 100 NE7       29.99S
MAYPORT NAS    CLOUDY    76  70  82 NE17      29.99S
JACKSONVILLE   CLOUDY    71  69  93 NE6       30.00S
JAX NAS        MOCLDY    77  70  79 N8        30.00S
JAX CRAIG      CLOUDY    73  69  87 N3        29.99S
JAX CECIL      LGT RAIN  70  70 100 N6        30.00S
ST AUGUSTINE   MOCLDY    73  72  96 W3        30.00S

STATION/POSITION SKY/WX   TEMP    WIND        PRES    WAVE   SWELL
                          AIR SEA DIR/SP/G            HT/PER HT/PER
                          (F)     (DEG/KT/KT) (MB)    (FT/S) (FT/S)
SHELL POINT                70      20/  6/  9   N/A
KEATON BEACH               71      40/  5/  8 1015.6R
CEDAR KEY                  71      50/  8/ 10 1015.2R
FERNANDINA                 75 81   60/  4/  6 1015.6F
30.7N   81.3W                 83                N/A     4/ 6
MAYPORT                    77 82   70/ 12/ 14   N/A
31.4N   80.9W              76 82   60/ 17/ 21 1017.0R   5/ 6
ST AUGUSTINE               73     280/  4/  5 1016.0S

$$
FLZ040-043>046-052-053-057-058-063-144-231100-
INTERIOR CENTRAL FLORIDA

CITY           SKY/WX    TMP DP  RH WIND       PRES   REMARKS
OCALA          PTCLDY    72  70  94 CALM      29.98S
THE VILLAGES     N/A     72  72 100 CALM      29.89R
LEESBURG       MOCLDY    73  71  93 E5        29.99R
SANFORD        MOCLDY    72  70  93 E3        29.99R
ORLANDO EXEC   CLOUDY    73  71  93 E6        29.99R
ORLANDO INTL   MOCLDY    73  71  93 CALM      30.00R
WINTER HAVEN   CLOUDY    72  71  97 E7        29.99S
LAKELAND       PTCLDY    73  72  94 CALM      29.98R
BARTOW         FAIR      70 N/A N/A CALM      29.99S
OKEECHOBEE       N/A     70  70 100 MISG        N/A

$$
FLZ041-047-054-059-064-141-147-231100-
EAST CENTRAL FLORIDA

CITY           SKY/WX    TMP DP  RH WIND       PRES   REMARKS
DAYTONA BEACH  MOCLDY    71  71 100 CALM      30.00R
DELAND         CLOUDY    70  70 100 CALM      30.01R VSB 1/2
JFK SPACE CTR  CLOUDY    72  71  95 NW3       29.98R
CAPE CANAVERAL CLOUDY    73  72  95 S5        29.97S
PATRICK AFB    CLOUDY    76  75  97 S3        29.97S
MELBOURNE      CLOUDY    74  72  93 SE3       29.97S
VERO BEACH     MOCLDY    71  69  93 CALM      29.98S
FT PIERCE      PTCLDY    73  70  90 SE3       29.98R
STUART         PTCLDY    73  72  94 E5        29.99S

STATION/POSITION SKY/WX   TEMP    WIND        PRES    WAVE   SWELL
                          AIR SEA DIR/SP/G            HT/PER HT/PER
                          (F)     (DEG/KT/KT) (MB)    (FT/S) (FT/S)
28.5N   80.2W              80 84  140/  6/  8 1015.0F
28.9N   78.5W              79 84  160/  2/  4 1016.3R   2/ 8   2/ 8
TRIDENT PIER               79 83  160/  4/  7 1014.3F
28.4N   80.5W                 83                N/A     2/ 8
27.6N   80.2W                 83                N/A     2/ 9

$$
FLZ050-056-061-142-242-148-248-149-249-151-251-155-255-
160-260-231100-
WEST CENTRAL FLORIDA

CITY           SKY/WX    TMP DP  RH WIND       PRES   REMARKS
CRYSTAL RIVER  CLOUDY    72  70  94 CALM      29.97S
INVERNESS      CLOUDY    72  68  88 CALM      29.98S
BROOKSVILLE    CLOUDY    71  70  96 CALM      29.97S
ZEPHYRHILLS    FAIR      63  63 100 SE3       29.99R
CLEARWATER     MOCLDY    74  71  91 S7        29.97R
TAMPA INTL     MOCLDY    73  70  90 SE3       29.97R
TAMPA EXEC     MOCLDY    72  70  94 CALM      29.98R
PLANT CITY     PTCLDY    72 N/A N/A SE3       29.99R
MACDILL AFB    MOCLDY    73  73 100 SE2       29.97R
ST PETERSBURG  MOCLDY    75  70  84 S8        29.95R
SARASOTA       PTCLDY    71  70  96 E5        29.95R
VENICE           N/A    N/A N/A N/A MISG        N/A

STATION/POSITION SKY/WX   TEMP    WIND        PRES    WAVE   SWELL
                          AIR SEA DIR/SP/G            HT/PER HT/PER
                          (F)     (DEG/KT/KT) (MB)    (FT/S) (FT/S)
CEDAR KEY                  71      50/  8/ 10 1015.2R
28.5N   84.5W              81 84   20/ 12/ 12 1013.9R   2/ 5   2/ 6
27.3N   84.3W                 84                N/A     2/ 5
CLEARWATER BEACH NOT AVBL
MIDDLE TAMPA BAY           74     160/  9/ 10 1014.7R
VENICE                     72 83  100/  6/  9 1014.7R

$$
FLZ066-069-070-075>078-162-262-165-265-231100-
SOUTHWEST FLORIDA AND KEYS

CITY           SKY/WX    TMP DP  RH WIND       PRES   REMARKS
PUNTA GORDA    PTCLDY    72  71  97 SE3       29.99R
FT MYERS       CLOUDY    72  72 100 E5        29.96R
SOUTHWEST INTL MOCLDY    72  71  97 E7        29.97R
NAPLES         PTCLDY    74  71  91 E9        29.96R
MARCO ISLAND   MOSUNNY   73  72  94 NE7       29.96R
MARATHON       PTCLDY    80  77  90 E6        29.94S
KEY WEST NAS   CLOUDY    81  74  79 W3        29.98R
KEY WEST INTL  CLOUDY    76  71  85 SW20G31   29.97R

STATION/POSITION SKY/WX   TEMP    WIND        PRES    WAVE   SWELL
                          AIR SEA DIR/SP/G            HT/PER HT/PER
                          (F)     (DEG/KT/KT) (MB)    (FT/S) (FT/S)
VENICE                     72 83  100/  6/  9 1014.7R
NAPLES                     74 87   80/  5/  7 1014.7R
DRY TORTUGAS               79      CALM  /  1 1013.2F
NW FL BAY                  79      80/ 12/ 14 1014.2R
SAND KEY                   72     270/ 12/ 13 1014.8R
SOMBRERO KEY               81      60/ 11/ 12 1014.7R
LONG KEY                   80 84   90/  8/  9 1014.9R
MOLASSES REEF              79 85  100/ 10/ 11 1014.2S

$$
FLZ067-068-071>074-168-172>174-231100-
SOUTHEAST FLORIDA

CITY           SKY/WX    TMP DP  RH WIND       PRES   REMARKS
W PALM BEACH   MOCLDY    79  74  84 E8        29.98R
FT LAUDER-EXEC MOCLDY    77  76  96 E8        29.97R
FT LAUDERDALE  PTCLDY    79  74  84 E9        29.96S
POMPANO BEACH  MOCLDY    81  74  79 E12       29.97R
PEMBROKE PINES PTCLDY    77  75  93 E7        29.98R
OPA LOCKA      PTCLDY    76  73  91 E6        29.97R
MIAMI          MOCLDY    77  74  90 E3        29.97R
WEST KENDALL   PTCLDY    76  73  91 E5        29.97R
HOMESTEAD      PTCLDY    77  74  91 N5        29.96R

STATION/POSITION SKY/WX   TEMP    WIND        PRES    WAVE   SWELL
                          AIR SEA DIR/SP/G            HT/PER HT/PER
                          (F)     (DEG/KT/KT) (MB)    (FT/S) (FT/S)
PORT EVERGLADES            81      90/  9/ 12 1014.7
VIRGINIA KEY               81 84   90/ 10/ 13   N/A
LAKE WORTH                 80 85  100/ 13/ 15 1015.0R
FOWEY ROCKS                81 84   90/ 14/ 16 1014.8R
SETTLEMENT POINT           77     110/ 15/ 17 1016.3R

$$



USA.gov is the U.S. government's official web portal to all federal, state and local government web resources and services.